Flag for Switzerland Weather past 2 weeks in Winterthur, Switzerland

Now
82 °F

Passing clouds.


Feels Like: 84 °F
Forecast: 63 / 94 °F
Wind: 3 mph from North

Location: Zurich-Kloten

Current Time: Jul 6, 2015 at 2:12:31 PM

Latest Report: Jul 6, 2015 at 1:50 PM


Visibility: N/A

Pressure: 30.18 "Hg

Humidity: 55%

Dew point: 64 °F

Location of WinterthurLocation

Historic Weather in Winterthur — Graph

°F

Winterthur temperature yesterday

Maximum temperature yesterday: 97 °F (at 5:20 PM)
Minimum temperature yesterday: 64 °F (at 5:50 AM)
Average temperature yesterday: 82 °F

Past Weeks' High & Low Weather Summary

 TemperatureHumidityPressure
High97 °F (Jul 5, 5:20 PM)100% (Jun 22, 5:50 AM)30.27 "Hg (Jun 22, 5:50 AM)
Low43 °F (Jun 24, 3:50 AM)22% (Jun 25, 7:20 PM)29.74 "Hg (Jun 22, 9:50 PM)
Average70 °F65%30.13 "Hg
* Reported Jun 21 12:20 PM — Jul 6 12:50 PM, Winterthur, Weather by CustomWeather, © 2015

Note: Actual official high and low records may vary slightly from our data, if they occured in-between our weather recording intervals... More about our weather records

Advertising

Winterthur weather history for previous 24 hours

 ConditionsComfort  
Time TempWeatherWind HumidityBarometerVisibility
12:50 PM
Mon, Jul 6
81 °FPassing clouds.3 mph58%30.18 "HgN/A
12:20 PM79 °FPassing clouds.3 mph61%30.18 "HgN/A
11:50 AM79 °FPassing clouds.3 mph61%30.21 "HgN/A
11:20 AM77 °FPassing clouds.2 mph65%30.21 "HgN/A
10:50 AM77 °FScattered clouds.7 mph65%30.21 "HgN/A
10:20 AM75 °FPartly sunny.5 mph69%30.21 "HgN/A
9:50 AM73 °FPartly sunny.2 mph74%30.21 "HgN/A
9:20 AM73 °FPartly sunny.1 mph69%30.21 "HgN/A
8:50 AM73 °FPartly sunny.3 mph69%30.21 "HgN/A
8:20 AM73 °FPartly sunny.1 mph74%30.21 "HgN/A
7:50 AM72 °FPartly sunny.5 mph73%30.21 "HgN/A
7:20 AM72 °FPartly sunny.3 mph78%30.21 "HgN/A
6:50 AM72 °FPartly sunny.6 mph73%30.21 "HgN/A
6:20 AM72 °FPassing clouds.5 mph73%30.21 "HgN/A
5:20 AM73 °FPassing clouds.1 mph69%30.18 "HgN/A
4:50 AM73 °FPassing clouds.1 mph69%30.18 "HgN/A
4:20 AM75 °FPassing clouds.10 mph65%30.15 "HgN/A
3:50 AM75 °FPartly cloudy.9 mph65%30.15 "HgN/A
3:20 AM75 °FPartly cloudy.6 mph69%30.15 "HgN/A
2:50 AM77 °FThunderstorms. Partly cloudy.7 mph65%30.15 "HgN/A
1:50 AM79 °FThundershowers. Partly cloudy.3 mph58%30.12 "HgN/A
1:20 AM81 °FPartly cloudy.7 mph54%30.09 "HgN/A
12:50 AM82 °FPassing clouds.7 mph48%30.09 "HgN/A
12:20 AM82 °FPassing clouds.5 mph51%30.07 "HgN/A
11:50 PM
Sun, Jul 5
82 °FPassing clouds.5 mph51%30.07 "HgN/A
11:20 PM81 °FPassing clouds.3 mph58%30.07 "HgN/A
10:50 PM82 °FPassing clouds.3 mph55%30.07 "HgN/A
10:20 PM86 °FSunny.5 mph49%30.04 "Hg10 mi
9:50 PM84 °FPassing clouds.6 mph51%30.04 "HgN/A
9:20 PM86 °FSunny.5 mph55%30.01 "Hg10 mi
8:50 PM88 °FSunny.5 mph55%30.01 "Hg10 mi
8:20 PM91 °FSunny.3 mph46%29.98 "Hg10 mi
7:50 PM91 °FSunny.3 mph46%29.98 "Hg10 mi
7:20 PM93 °FPassing clouds.6 mph41%29.98 "HgN/A
6:50 PM91 °FPassing clouds.5 mph41%29.98 "HgN/A
6:20 PM95 °FPassing clouds.5 mph32%29.98 "HgN/A
5:50 PM93 °FPassing clouds.5 mph36%29.98 "HgN/A
5:20 PM97 °FSunny.1 mph32%30.01 "Hg10 mi
4:50 PM95 °FSunny.3 mph32%30.01 "Hg10 mi
4:20 PM95 °FPassing clouds.6 mph39%30.01 "HgN/A
3:50 PM95 °FSunny.3 mph36%30.04 "Hg10 mi
3:20 PM93 °FPassing clouds.7 mph44%30.04 "HgN/A
2:50 PM93 °FPassing clouds.6 mph39%30.04 "HgN/A
2:20 PM93 °FSunny.8 mph41%30.07 "Hg10 mi
Weather by CustomWeather, © 2015

See weather overviewHow to use our weather pages